Regional Weather Roundup
Issued by NWS Wakefield, VA

Home | Current Version | Previous Version | Graphics & Text | Print | Product List | Glossary On
Versions: 1 2 3 4 5 6 7 8 9 10 11 12 13 14 15 16 17 18 19 20 21 22 23 24 25 26 27 28 29 30 31 32 33 34 35 36 37 38 39 40 41 42 43 44 45 46 47 48 49 50
000
ASUS41 KAKQ 261810
RWRAKQ

REGIONAL WEATHER ROUNDUP
NATIONAL WEATHER SERVICE WAKEFIELD VA
200 PM EDT TUE AUG 26 2014

Note: "fair" indicates few or no clouds below 12,000 feet with no
significant weather and/or obstructions to visibility. * = Denotes
station may not report precipitation (e.g., rain,snow,etc.),
thunder or fog.

VAZ042-051-052>054-056-261900-
NORTHERN VIRGINIA

CITY           SKY/WX    TMP DP  RH WIND       PRES   REMARKS
WASH NATIONAL  MOSUNNY   87  60  40 E5        30.16F
DULLES         MOSUNNY   82  61  48 E7        30.17F
FORT BELVOIR   MOSUNNY   84  61  46 SE3       30.16F
QUANTICO       MOSUNNY   83  62  49 NE6       30.16F
FREDERICKSBRG* MOSUNNY   84  61  45 NE7       30.15S
STAFFORD*      MOSUNNY   83  62  48 N6        30.20S
WARRENTON      SUNNY     83  68  59 NE9       30.17S
CULPEPER*      SUNNY    N/A N/A N/A CALM      30.17F
MANASSAS*      NOT AVBL
LEESBURG*      SUNNY     82  63  51 NE3       30.18F
WINCHESTER     SUNNY     79  59  50 CALM      30.19F
$$

VAZ048-049-060>072-079>083-261900-
CENTRAL AND SOUTH CENTRAL VIRGINIA...AND NORTH CENTRAL NORTH CAROLINA

CITY           SKY/WX    TMP DP  RH WIND       PRES   REMARKS
RICHMOND       MOSUNNY   85  59  41 NE9G21    30.13F
CHESTERFIELD*  CLEAR     84  54  34 NE9       30.15F
HANOVER        SUNNY     85  60  42 VRB3      30.15F
TAPPAHANNOCK*  SUNNY     85  54  34 NE10      30.15S
CHARLOTTSVILLE SUNNY     80  59  48 N5        30.18F
ORANGE*        SUNNY     81  59  47 CALM      30.19S
LOUISA*        MOSUNNY   81  63  54 E3        30.16S
FARMVILLE*     SUNNY     82  57  42 E6        30.14F
SOUTH HILL*    SUNNY     81  63  54 CALM      30.20F
ROANOKE RAPIDS MOCLDY    79  63  57 NE7       30.13S
RALEIGH        MOSUNNY   79  60  52 NE7       30.14F
$$

VAZ088>098-261900-
SOUTHEAST VIRGINIA

CITY           SKY/WX    TMP DP  RH WIND       PRES   REMARKS
NORFOLK        SUNNY     78  64  61 NE14      30.13F
VIRGINIA BEACH MOSUNNY   78  64  61 NE15      30.11F
NORFOLK NAVAL  MOSUNNY   80  64  58 NE12      30.14F
WEST POINT*    SUNNY     85  58  40 E7        30.15S
NEWPORT NEWS   SUNNY     84  64  50 E12       30.13F
LANGLEY AFB    SUNNY     79  66  64 E7        30.13F
FORT EUSTIS    SUNNY     82  56  40 NE9       30.12S
WILLIAMSBURG*  SUNNY     88  64  45 CALM      30.13F
FRANKLIN*      MOSUNNY   82  59  44 E8        30.12F
WAKEFIELD      MOSUNNY   83  61  47 VRB6      30.13F
$$

VAZ020-022-025-037-045-261900-
WESTERN AND SOUTHWEST VIRGINIA

CITY           SKY/WX    TMP DP  RH WIND       PRES   REMARKS
STAUNTON*      PTSUNNY   78  57  47 N3        30.22F
HOT SPRINGS VA MOSUNNY   68  52  56 NE3       30.32S
LYNCHBURG      MOSUNNY   77  59  53 NE9       30.20F
DANVILLE       MOSUNNY   79  61  53 E7        30.17F
MARTINSVILLE   MOSUNNY   80  62  53 NE6       30.20F
ROANOKE        PTSUNNY   78  57  48 E5        30.21F
BLACKSBURG     MOSUNNY   75  59  57 NE5       30.25F
DUBLIN*        SUNNY     75  52  45 NE3       30.24F
MARION*        SUNNY    N/A N/A N/A NE3       30.26F
HILLSVILLE*    SUNNY     73  58  59 CALM      30.24F
RICHLANDS*     CLEAR     76  56  48 N3        30.24F
WISE*          MOSUNNY   77  57  50 N6        30.24F
ABINGDON*      SUNNY     79  57  47 CALM      30.21F
$$

MDZ021>025-VAZ099-100-261900-
SOUTHERN MARYLAND AND THE DELMARVA PENINSULA

CITY           SKY/WX    TMP DP  RH WIND       PRES   REMARKS
PATUXENT RIVER MOSUNNY   83  64  52 N10       30.14F
BAY BRIDGE APT   N/A     81  63  54 NW7       30.15F
LEONARDTOWN    MOSUNNY   82  61  47 N6        30.16F
DOVER          SUNNY     84  67  55 E8        30.14F
GEORGETOWN     SUNNY     81  61  50 E10       30.15F
EASTON         PTSUNNY   86  63  45 E7        30.18F
CAMBRIDGE      MOSUNNY   84  59  42 NE10      30.14S
SALISBURY      SUNNY     84  60  44 E9        30.13F
OCEAN CITY     SUNNY     78  65  63 E8        30.15F
WALLOPS ISLAND MOSUNNY   79  65  62 E12       30.14F
ACCOMACK*      SUNNY     79  61  53 NE9       30.13F
$$

NCZ012>017-030>032-261900-
EASTERN NORTH CAROLINA

CITY           SKY/WX    TMP DP  RH WIND       PRES   REMARKS
ELIZABETH CITY MOSUNNY   81  64  56 NE12      30.11F
AHOSKIE*       MOSUNNY   79  62  55 NE9       30.12F
EDENTON*       MOSUNNY   81  60  49 NE7       30.10F
CURRITUCK*     SUNNY     79  62  55 NE10G18   30.12F
KILL DEVIL HLS SUNNY     79  66  63 N9G21     30.09S
MANTEO         MOSUNNY   78  66  67 NE15G22   30.10S
CAPE HATTERAS  SUNNY     80  70  71 NE9G22    30.07S
GOLDSBORO      MOSUNNY   80  66  62 N9        30.08F
WASHINGTON     SUNNY     81  58  44 NE7       30.10F
GREENVILLE     SUNNY     82  63  51 NE8G17    30.11F
NEW BERN       SUNNY     85  61  44 NE12G20   30.08F HAZE
WILMINGTON     CLOUDY    81  66  60 N10       30.06F
$$

VAZ048-261900-
ELSEWHERE

CITY           SKY/WX    TMP DP  RH WIND       PRES   REMARKS
HARRISBURG PA  MOSUNNY   83  65  54 CALM      30.16F
BALTIMORE      MOSUNNY   85  59  41 SE8       30.15F
ANNAPOLIS      SUNNY     83  60  45 CALM      30.15F
ANDREWS AFB    MOSUNNY   81  63  54 VRB2      30.16F
WILMINGTON DE  SUNNY     86  61  42 SE7       30.15F
PHILADELPHIA   MOSUNNY   89  61  38 E7        30.14F
WILDWOOD NJ*   SUNNY     79  57  47 NE6       30.16F
ATLANTIC CITY  SUNNY     80  59  48 E10       30.16S
HENDERSON NC   MOSUNNY   77  59  53 E7        30.16S
GREENSBORO     PTSUNNY   79  58  48 N7        30.16F
ROCKY MOUNT    PTSUNNY   81  63  54 N12G17    30.12F
FAYETTEVILLE   SUNNY     83  61  47 N13       30.10F
CHARLOTTE      MOSUNNY   80  57  45 NE6G20    30.14F
$$

VAZ100-261900-
MARINE

STATION/POSITION TIME  TEMP    WIND        PRES    WAVE   SWELL
                       AIR SEA DIR/SP/G            HT/PER HT/PER
                 (UTC) (F)     (DEG/KT/KT) (MB)    (FT/S) (FT/S)
44066 TX TWR #4  1800   72 72   80/  6/  8 1021.0F   4/ 9   3/ 9
CAPE MAY NJ      1800   76 79  100/  6/  9 1020.6F
LEWES DE         1800   74 76   80/  7/ 10 1020.9F
15NM E FENWICK I 1800   73 74              1020.8F   4/ 8
OCEAN-CITY-INLET 1800   75 75   80/  8/ 10 1020.7S
WACHAPREAGUE VA  1800   74 77   70/ 10/ 12 1020.4F
GOOSES REEF MD   1800   77      10/ 10/ 12 1021.3F
COVE POINT MD    1800   76     360/ 11/ 13 1020.7S
SOLOMONS ISLAND  1800      80                N/A
BISHOPS HEAD MD  1800   79 79  140/  3/  4 1020.3S
PINEY POINT MD   1800          150/  6/  7   N/A
POTOMAC MD       1800   76     150/  2/  4 1020.2F
CAMBRIDGE MD     1800   81 78   60/  7/ 10 1020.3F
LEWISETTA VA     1800   76 77  120/  7/  8 1020.4F
RAPPAHANNOCK LGT 1800          360/  8/  9 1020.9F
STINGRAY PT      1800   76      40/  6/  8   N/A
YORK RVR RNG VA  1800   76      80/  6/  8 1020.0S
YORKTOWN VA      1800   76 78   90/  9/ 10 1020.2S
JAMESTOWN VA     1800   78      60/  4/ 10   N/A
DOMINION TERM VA 1800   78     100/  4/  9 1020.3F
KIPTOPEKE VA     1800      80   80/  6/ 12   N/A
CHES BAY BRIDGE  1800   74 77   50/ 12/ 15 1019.7F
CAPE HENRY VA    1800   74      40/ 10/ 11 1019.0F
CHESAPEAKE LGHT  1700   73      40/ 14/ 15 1020.9S
WILLOUBY STN VA  1800   75      60/  9/ 11 1019.1F
S CRANEY ISL VA  1800           10/  8/ 10 1020.0S
CAPE HENRY BUOY  1800      77                N/A     4/ 8   2/11
1ST LANDING BUOY 1800   74      60/ 10/ 14 1019.8F
CAPE CHARLES BUO 1800      77                N/A     4/ 9   3/ 9
OFFSHORE WE BUOY 1800      75                N/A     5/ 8   5/ 8
64NM E OF VA BCH 1800   76 78   40/ 14/ 17 1018.8F   5/ 9   3/ 9
DUCK PIER NC     1800   74 76   20/ 17/ 19 1018.7F
44056 DUCK FRF   1800                        N/A     5/ 8   2/11
OREGON INLET NC  1800   78 77   20/ 14/ 19 1018.8S
HATTERAS NC      1800   77 77   30/ 16/ 21 1018.7S
DIAMOND SHLS NC  1700   77      10/ 21/ 25 1017.1R   8/ 9   5/ 9
CAPE LOOKOUT NC  1700   78      30/ 19/ 23 1017.9R
$$



USA.gov is the U.S. government's official web portal to all federal, state and local government web resources and services.